Regional Weather Roundup
Issued by NWS Newport/Morehead, NC

Current Version | Previous Version | Text Only | Print | Product List | Glossary On
Versions: 1 2 3 4 5 6 7 8 9 10 11 12 13 14 15 16 17 18 19 20 21 22 23 24 25 26 27 28 29 30 31 32 33 34 35 36 37 38 39 40 41 42 43 44 45 46 47 48 49 50
000
ASUS42 KMHX 242226
RWRMHX
WEATHER ROUNDUP FOR EASTERN NORTH CAROLINA
NATIONAL WEATHER SERVICE NEWPORT/MOREHEAD CITY NC
600 PM EDT SUN SEP 24 2017

NOTE: "FAIR" INDICATES FEW OR NO CLOUDS BELOW 12,000 FEET
WITH NO SIGNIFICANT WEATHER AND/OR OBSTRUCTIONS TO VISIBILITY

NCZ015>017-031-032-045>047-102-103-242300-
NORTH COAST

CITY           SKY/WX    TMP DP  RH WIND       PRES   REMARKS
EDENTON        CLOUDY    81  60  49 CALM      29.99S
ELIZABETH CITY SUNNY     79  68  69 NE13      29.99S
KITTY HAWK     CLEAR     72  65  80 CALM      29.98R
MANTEO         SUNNY     73  66  78 NE9       29.99S

$$

NCZ045>047-081-094-103-104-242300-
CENTRAL COAST

CITY           SKY/WX    TMP DP  RH WIND       PRES   REMARKS
FRISCO         MOSUNNY   76  68  76 NE12G20   29.96S

$$

NCZ095-097-098-100-101-242300-
SOUTHERN COAST

CITY           SKY/WX    TMP DP  RH WIND       PRES   REMARKS
BEAUFORT       PTSUNNY   78  67  68 NE12      29.95R
CEDAR ISLAND   NOT AVBL
JACKSONVILLE   CLOUDY    82  70  66 NE8       29.95R
PINEY ISLAND   FLURRIES N/A N/A N/A NE17G24   29.96R
WILMINGTON     MOSUNNY   82  68  62 NE7       29.94S


$$

NCZ011>013-027>030-043-044-078>080-089-090>093-098-242300-
COASTAL PLAIN

CITY           SKY/WX    TMP DP  RH WIND       PRES   REMARKS
AHOSKIE        SUNNY     80  60  50 N7        30.00R
CLINTON        CLOUDY    82  68  62 N5        29.97S
ELIZABETHTOWN  NOT AVBL
GOLDSBORO      MOSUNNY   82  67  60 NE8       29.95S
GREENVILLE     MOSUNNY   82  64  54 NE7       29.99S
HAVELOCK       PTSUNNY   79  70  74 E16       29.97R
KENANSVILLE    CLOUDY    81  68  65 CALM      29.96S
KINSTON        MOSUNNY   82  64  54 NE5       29.97S
NEW BERN       CLOUDY    82  65  56 NE10      29.97R
RICHLANDS      CLOUDY    81  69  67 N6        29.96S
ROCKY MOUNT    MOSUNNY   80  66  62 NE3       29.98F
WASHINGTON     MOSUNNY   81  65  59 NE7       29.98R
WHITEVILLE     CLOUDY    79  69  70 CALM      29.95S

$$

AMZ130-135-150-152-154-156-158-170-250-252-270-ANZ085-086-088-633-658-670-242300-
MARINE OBSERVATIONS

STATION/POSITION TIME  TEMP    WIND        PRES    WAVE   SWELL
                       AIR SEA DIR/SP/G            HT/PER HT/PER
                 (UTC) (F)     (DEG/KT/KT) (MB)    (FT/S) (FT/S)
CHESAPEAKE LIGHT NOT AVBL
64 E VA BEACH    2150   71 71   30/ 12/ 16 1015.7    8/12   8/12
DUCK             2200   73 77   30/ 14/ 16 1015.0
2 E DUCK         2200      76                N/A     5/14   3/14
OREGON INLET     2200   73 78   30/ 11/ 14 1015.0
13E OREGON INLT  2148      75                N/A     6/13   7/13
HATTERAS CG      2200   76 78   50/ 10/ 15 1014.4
DIAMOND BUOY     2150   75 81   30/ 19/ 23 1013.6   10/16   8/16
CAPE LOOKOUT     2200   77      40/ 21/ 23 1013.8
BEAUFORT LAB     2200   78 77   50/ 10/ 13 1013.6
30 SE NEW RVR IN 2208   78      50/ 19/ 27 1013.1
30 SE NEW RVR IN NOT AVBL
27 SE WRIGHTSVLE 2208   79 80   80/ 19/ 25 1013.1
5 SE WRIGHTSVLE  2208   80 78   70/ 10/ 17 1013.7
225 S CAPE HAT   2150   80 81   30/ 29/ 37 1004.5   21/13  16/13
41 SE CHARLESTON 2210   80 81   30/ 21/ 27 1012.6

$$



USA.gov is the U.S. government's official web portal to all federal, state and local government web resources and services.